• In Czech Republic
  • List of Countries
  • For 7 days
  • Water Temperature
  • Satellite Maps
  • Weather Map
  • Weather Widgets
  • user-avatar
    Login

    Hourly Weather Saint-Ghislain

    Today, 12 December, Tuesday

    Time Temperature Precipitation Wind Pressure Humidity
    00:00 +1°C° 0 mm 6 mps 743 mmHg 83%
    01:00 +1°C° 0.1 mm 5 mps 744 mmHg 84%
    02:00 0°C° 0.1 mm 5 mps 745 mmHg 85%
    03:00 0°C° 0.1 mm 4 mps 746 mmHg 86%
    04:00 0°C° 0.1 mm 4 mps 747 mmHg 88%
    05:00 0°C° 0.1 mm 4 mps 749 mmHg 90%
    06:00 -1°C° 0 mm 4 mps 750 mmHg 92%
    07:00 -1°C° 0.1 mm 4 mps 751 mmHg 91%
    08:00 0°C° 0.1 mm 4 mps 752 mmHg 91%
    09:00 0°C° 0.1 mm 4 mps 753 mmHg 90%
    10:00 0°C° 0.1 mm 4 mps 753 mmHg 87%
    11:00 +1°C° 0.1 mm 4 mps 754 mmHg 85%
    12:00 +3°C° 0.1 mm 4 mps 755 mmHg 82%
    13:00 +3°C° 0 mm 4 mps 755 mmHg 83%
    14:00 +2°C° 0 mm 3 mps 755 mmHg 85%
    15:00 +2°C° 0 mm 3 mps 756 mmHg 86%
    16:00 +1°C° 0 mm 3 mps 756 mmHg 87%
    17:00 +1°C° 0 mm 3 mps 757 mmHg 89%
    18:00 0°C° 0 mm 3 mps 757 mmHg 90%
    19:00 0°C° 0 mm 3 mps 757 mmHg 90%
    20:00 -1°C° 0 mm 4 mps 758 mmHg 90%
    21:00 -1°C° 0 mm 4 mps 758 mmHg 90%
    22:00 -1°C° 0 mm 4 mps 758 mmHg 90%
    23:00 0°C° 0 mm 5 mps 758 mmHg 89%

    Tomorrow, 13 December, Wednesday

    Time Temperature Precipitation Wind Pressure Humidity
    00:00 0°C° 0 mm 5 mps 757 mmHg 89%
    01:00 -1°C° 0 mm 6 mps 757 mmHg 89%
    02:00 -1°C° 0 mm 6 mps 756 mmHg 89%
    03:00 -1°C° 0 mm 7 mps 756 mmHg 89%
    04:00 0°C° 0.4 mm 8 mps 755 mmHg 88%
    05:00 0°C° 0.4 mm 8 mps 754 mmHg 87%
    06:00 +1°C° 0.4 mm 9 mps 753 mmHg 87%
    07:00 +1°C° 0.9 mm 9 mps 753 mmHg 87%
    08:00 +2°C° 0.9 mm 9 mps 752 mmHg 88%
    09:00 +2°C° 0.9 mm 9 mps 752 mmHg 88%
    10:00 +4°C° 0.5 mm 8 mps 751 mmHg 89%
    11:00 +4°C° 0.5 mm 7 mps 751 mmHg 91%
    12:00 +5°C° 0.5 mm 7 mps 750 mmHg 92%
    13:00 +5°C° 0.8 mm 7 mps 749 mmHg 92%
    14:00 +5°C° 0.8 mm 7 mps 748 mmHg 91%
    15:00 +5°C° 0.8 mm 7 mps 748 mmHg 91%
    16:00 +6°C° 0.8 mm 8 mps 747 mmHg 90%
    17:00 +6°C° 0.8 mm 9 mps 746 mmHg 88%
    18:00 +6°C° 0.8 mm 10 mps 745 mmHg 87%
    19:00 +6°C° 1.3 mm 9 mps 745 mmHg 82%
    20:00 +5°C° 1.3 mm 8 mps 745 mmHg 78%
    21:00 +5°C° 1.3 mm 6 mps 745 mmHg 73%
    22:00 +4°C° 0.3 mm 7 mps 745 mmHg 74%
    23:00 +3°C° 0.3 mm 9 mps 745 mmHg 75%

    Day after tomorrow, 14 December, Thursday

    Time Temperature Precipitation Wind Pressure Humidity
    00:00 +3°C° 0.3 mm 10 mps 745 mmHg 76%
    01:00 +2°C° 0.3 mm 9 mps 746 mmHg 73%
    02:00 +1°C° 0.3 mm 8 mps 746 mmHg 69%
    03:00 +2°C° 0.3 mm 7 mps 747 mmHg 66%
    04:00 +1°C° 0 mm 6 mps 747 mmHg 68%
    05:00 +1°C° 0 mm 6 mps 748 mmHg 71%
    06:00 +1°C° 0 mm 6 mps 748 mmHg 73%
    07:00 +2°C° 0.1 mm 6 mps 747 mmHg 75%
    08:00 +2°C° 0.1 mm 6 mps 747 mmHg 76%
    09:00 +2°C° 0.1 mm 7 mps 747 mmHg 77%
    10:00 +3°C° 1.1 mm 6 mps 746 mmHg 80%
    11:00 +3°C° 1.1 mm 6 mps 745 mmHg 84%
    12:00 +3°C° 1.1 mm 6 mps 744 mmHg 87%
    13:00 +3°C° 0.7 mm 6 mps 742 mmHg 86%
    14:00 +4°C° 0.7 mm 7 mps 741 mmHg 85%
    15:00 +4°C° 0.7 mm 7 mps 740 mmHg 84%
    16:00 +3°C° 0.2 mm 7 mps 741 mmHg 82%
    17:00 +3°C° 0.2 mm 6 mps 741 mmHg 80%
    18:00 +2°C° 0.2 mm 6 mps 741 mmHg 79%
    19:00 +2°C° 0 mm 5 mps 742 mmHg 79%
    20:00 +1°C° 0 mm 5 mps 743 mmHg 79%
    21:00 +1°C° 0 mm 4 mps 743 mmHg 79%
    22:00 +1°C° 0.6 mm 4 mps 743 mmHg 81%
    23:00 +1°C° 0.6 mm 4 mps 743 mmHg 83%

    15 December, Friday

    Time Temperature Precipitation Wind Pressure Humidity
    00:00 +1°C° 0.6 mm 4 mps 744 mmHg 86%
    01:00 +1°C° 0.1 mm 4 mps 743 mmHg 87%
    02:00 +1°C° 0.1 mm 4 mps 743 mmHg 89%
    03:00 +1°C° 0.1 mm 5 mps 743 mmHg 91%
    04:00 +1°C° 0.3 mm 5 mps 743 mmHg 90%
    05:00 +1°C° 0.3 mm 5 mps 743 mmHg 89%
    06:00 +2°C° 0.3 mm 5 mps 744 mmHg 89%
    07:00 +2°C° 0.5 mm 5 mps 744 mmHg 89%
    08:00 +2°C° 0.5 mm 5 mps 744 mmHg 89%
    09:00 +2°C° 0.5 mm 5 mps 744 mmHg 90%
    10:00 +3°C° 0.2 mm 5 mps 745 mmHg 88%
    11:00 +3°C° 0.2 mm 5 mps 745 mmHg 87%
    12:00 +5°C° 0.2 mm 4 mps 746 mmHg 85%
    13:00 +4°C° 0.1 mm 4 mps 746 mmHg 85%
    14:00 +4°C° 0.1 mm 4 mps 747 mmHg 84%
    15:00 +4°C° 0.1 mm 3 mps 747 mmHg 84%
    16:00 +3°C° 0 mm 3 mps 748 mmHg 86%
    17:00 +3°C° 0 mm 2 mps 749 mmHg 87%
    18:00 +4°C° 0 mm 1 mps 749 mmHg 88%
    19:00 +3°C° 0 mm 1 mps 750 mmHg 89%
    20:00 +3°C° 0 mm 1 mps 751 mmHg 89%
    21:00 +3°C° 0 mm 1 mps 752 mmHg 89%
    22:00 +3°C° 0 mm 1 mps 752 mmHg 89%
    23:00 +2°C° 0 mm 2 mps 753 mmHg 90%

    16 December, Saturday

    Time Temperature Precipitation Wind Pressure Humidity
    00:00 +1°C° 0 mm 2 mps 754 mmHg 90%
    01:00 +1°C° 0 mm 2 mps 754 mmHg 91%
    02:00 +1°C° 0 mm 2 mps 755 mmHg 91%
    03:00 +1°C° 0 mm 2 mps 755 mmHg 91%
    04:00 0°C° 0 mm 3 mps 755 mmHg 92%
    05:00 0°C° 0 mm 3 mps 756 mmHg 92%
    06:00 0°C° 0 mm 3 mps 756 mmHg 93%
    07:00 +1°C° 0 mm 3 mps 757 mmHg 92%
    08:00 +1°C° 0 mm 3 mps 757 mmHg 92%
    09:00 +2°C° 0 mm 3 mps 758 mmHg 91%
    10:00 +1°C° 0 mm 4 mps 758 mmHg 86%
    11:00 +3°C° 0 mm 4 mps 758 mmHg 81%
    12:00 +4°C° 0 mm 4 mps 759 mmHg 77%
    13:00 +3°C° 0.1 mm 4 mps 759 mmHg 78%
    14:00 +3°C° 0.1 mm 4 mps 759 mmHg 80%
    15:00 +2°C° 0.1 mm 3 mps 759 mmHg 81%
    16:00 +2°C° 0 mm 3 mps 760 mmHg 83%
    17:00 +1°C° 0 mm 3 mps 761 mmHg 85%
    18:00 +1°C° 0 mm 3 mps 761 mmHg 88%
    19:00 +1°C° 0 mm 3 mps 762 mmHg 88%
    20:00 0°C° 0 mm 3 mps 762 mmHg 89%
    21:00 0°C° 0 mm 3 mps 763 mmHg 89%
    22:00 0°C° 0 mm 3 mps 763 mmHg 89%
    23:00 0°C° 0 mm 3 mps 763 mmHg 89%

    17 December, Sunday

    Time Temperature Precipitation Wind Pressure Humidity
    00:00 0°C° 0 mm 3 mps 764 mmHg 89%
    01:00 0°C° 0 mm 3 mps 764 mmHg 89%
    02:00 0°C° 0 mm 3 mps 764 mmHg 88%
    03:00 -1°C° 0 mm 2 mps 764 mmHg 88%
    04:00 -1°C° 0 mm 2 mps 764 mmHg 87%
    05:00 -1°C° 0 mm 2 mps 765 mmHg 86%
    06:00 -1°C° 0 mm 2 mps 765 mmHg 86%
    07:00 -1°C° 0 mm 2 mps 765 mmHg 85%
    08:00 +1°C° 0 mm 2 mps 766 mmHg 84%
    09:00 +1°C° 0 mm 2 mps 766 mmHg 83%
    10:00 +2°C° 0 mm 2 mps 766 mmHg 81%
    11:00 +3°C° 0 mm 2 mps 766 mmHg 79%
    12:00 +4°C° 0 mm 2 mps 766 mmHg 77%
    13:00 +3°C° 0 mm 2 mps 766 mmHg 80%
    14:00 +3°C° 0 mm 2 mps 766 mmHg 83%
    15:00 +2°C° 0 mm 2 mps 767 mmHg 86%
    16:00 +2°C° 0 mm 2 mps 767 mmHg 88%
    17:00 +1°C° 0 mm 2 mps 767 mmHg 90%
    18:00 +1°C° 0 mm 2 mps 768 mmHg 92%
    19:00 +1°C° 0 mm 2 mps 768 mmHg 93%
    20:00 +1°C° 0 mm 2 mps 768 mmHg 94%
    21:00 +1°C° 0 mm 2 mps 768 mmHg 94%
    22:00 +1°C° 0 mm 2 mps 768 mmHg 94%
    23:00 +1°C° 0 mm 2 mps 768 mmHg 95%
    Show more